Weather History for Sunlight Mountain, CO

Change the Weather History Date:

Saturday, August 31, 2013

  Actual Average (KRIL) Record (KRIL)
Temperature  
Mean Temperature 60 °F 67 °F  
Max Temperature 68 °F 84 °F 98 °F (1949)
Min Temperature 53 °F 49 °F 32 °F (1959)
Degree Days  
Heating Degree Days 4 1  
Month to date heating degree days 4  
Since 1 June heating degree days 66  
Since 1 July heating degree days 7  
Cooling Degree Days 0 3  
Month to date cooling degree days 173  
Year to date cooling degree days 516  
Since 1 June cooling degree days 509  
Growing Degree Days 10 (Base 50)    
Moisture  
Dew Point 44 °F    
Average Humidity 61    
Maximum Humidity 77    
Minimum Humidity 37    
Precipitation  
Precipitation 0.00 in 0.05 in 0.52 in (2008)
Month to date precipitation 1.40  
Year to date precipitation 8.97  
Sea Level Pressure  
Sea Level Pressure 30.60 in    
Wind  
Wind Speed 2 mph (NE)    
Max Wind Speed 7 mph    
Max Gust Speed -    
Visibility 10 miles    
Events Rain , Thunderstorm    
T = Trace of Precipitation, MM = Missing Value Source: NWS Daily Summary

Daily Weather History Graph

Daily Weather History Graph

Search for Another Location

Airport:

Trip Planner

Search our weather history database for the weather conditions in past years. The results will help you decide how hot, cold, wet, or windy it might be!

Date:

Astronomy

Aug. 31, 2013 Rise Set
Actual Time 6:37 AM MDT 7:41 PM MDT
Civil Twilight 6:09 AM MDT 8:08 PM MDT
Nautical Twilight 5:36 AM MDT 8:41 PM MDT
Astronomical Twilight 5:02 AM MDT 9:15 PM MDT
Moon 2:09 AM MDT (8/31) 4:41 PM MDT (8/31)
Length of Visible Light 13h 59m
Length of Day
13h 04m
Waning Crescent, 20% of the Moon is Illuminated
Aug 31
Waning Crescent
Sep 5
New
Sep 12
First Quarter
Sep 19
Full
Sep 26
Last Quarter

Hourly Weather History & Observations

Time (MDT) Temp. Dew Point Humidity Pressure Visibility Wind Dir Wind Speed Gust Speed Precip Events Conditions
12:15 AM 53.6 °F 44.6 °F 72% 30.65 in 10.0 mi East 3.5 mph - N/A   Overcast
12:35 AM 53.6 °F 44.6 °F 72% 30.65 in 10.0 mi ENE 5.8 mph - N/A   Overcast
12:56 AM 53.6 °F 44.6 °F 72% 30.64 in 10.0 mi ENE 4.6 mph - N/A   Mostly Cloudy
1:16 AM 53.6 °F 44.6 °F 72% 30.64 in 10.0 mi ENE 5.8 mph - N/A   Mostly Cloudy
1:36 AM 53.6 °F 44.6 °F 72% 30.63 in 10.0 mi NE 4.6 mph - N/A   Overcast
1:56 AM 53.6 °F 44.6 °F 72% 30.62 in 10.0 mi East 3.5 mph - N/A   Overcast
2:16 AM 53.6 °F 44.6 °F 72% 30.62 in 10.0 mi ENE 4.6 mph - N/A   Overcast
2:36 AM 53.6 °F 44.6 °F 72% 30.61 in 10.0 mi ENE 4.6 mph - N/A   Overcast
2:56 AM 55.4 °F 42.8 °F 63% 30.61 in 10.0 mi Calm Calm - N/A   Overcast
3:15 AM 55.4 °F 42.8 °F 63% 30.61 in 10.0 mi Calm Calm - N/A   Overcast
3:36 AM 55.4 °F 41.0 °F 58% 30.60 in 10.0 mi Calm Calm - N/A   Overcast
3:56 AM 57.2 °F 41.0 °F 55% 30.60 in 10.0 mi Calm Calm - N/A   Mostly Cloudy
4:16 AM 57.2 °F 41.0 °F 55% 30.60 in 10.0 mi Calm Calm - N/A   Scattered Clouds
4:36 AM 57.2 °F 41.0 °F 55% 30.59 in 10.0 mi Calm Calm - N/A   Clear
4:56 AM 55.4 °F 41.0 °F 58% 30.59 in 10.0 mi Calm Calm - N/A   Scattered Clouds
5:16 AM 55.4 °F 41.0 °F 58% 30.59 in 10.0 mi Calm Calm - N/A   Scattered Clouds
5:35 AM 57.2 °F 41.0 °F 55% 30.59 in 10.0 mi Calm Calm - N/A   Mostly Cloudy
5:56 AM 57.2 °F 41.0 °F 55% 30.59 in 10.0 mi Calm Calm - N/A   Overcast
6:16 AM 59.0 °F 41.0 °F 51% 30.59 in 10.0 mi Calm Calm - N/A   Overcast
6:36 AM 57.2 °F 41.0 °F 55% 30.59 in 10.0 mi Calm Calm - N/A   Overcast
6:55 AM 57.2 °F 41.0 °F 55% 30.60 in 10.0 mi Calm Calm - N/A   Scattered Clouds
7:16 AM 55.4 °F 41.0 °F 58% 30.60 in 10.0 mi Calm Calm - N/A   Scattered Clouds
7:35 AM 57.2 °F 42.8 °F 59% 30.60 in 10.0 mi Calm Calm - N/A   Overcast
7:56 AM 55.4 °F 42.8 °F 63% 30.61 in 10.0 mi Calm Calm - N/A   Overcast
8:16 AM 57.2 °F 42.8 °F 59% 30.62 in 10.0 mi Calm Calm - N/A   Overcast
8:36 AM 57.2 °F 42.8 °F 59% 30.62 in 10.0 mi NW 3.5 mph - N/A   Overcast
8:56 AM 57.2 °F 42.8 °F 59% 30.62 in 10.0 mi NNW 4.6 mph - N/A   Overcast
9:16 AM 57.2 °F 44.6 °F 63% 30.62 in 10.0 mi Calm Calm - N/A   Overcast
9:36 AM 55.4 °F 44.6 °F 67% 30.62 in 10.0 mi Calm Calm - N/A   Overcast
9:56 AM 57.2 °F 46.4 °F 67% 30.62 in 10.0 mi Calm Calm - N/A   Overcast
10:16 AM 59.0 °F 44.6 °F 59% 30.62 in 10.0 mi Calm Calm - N/A   Overcast
10:36 AM 59.0 °F 44.6 °F 59% 30.62 in 10.0 mi Calm Calm - N/A   Overcast
10:56 AM 60.8 °F 44.6 °F 55% 30.63 in 10.0 mi Calm Calm - N/A   Overcast
11:15 AM 60.8 °F 44.6 °F 55% 30.63 in 10.0 mi Calm Calm - N/A   Overcast
11:36 AM 62.6 °F 46.4 °F 55% 30.63 in 10.0 mi Calm Calm - N/A   Overcast
11:56 AM 60.8 °F 42.8 °F 52% 30.63 in 10.0 mi Calm Calm - N/A   Overcast
12:16 PM 60.8 °F 44.6 °F 55% 30.62 in 10.0 mi Calm Calm - N/A   Overcast
12:36 PM 60.8 °F 44.6 °F 55% 30.62 in 10.0 mi Calm Calm - N/A   Scattered Clouds
12:55 PM 62.6 °F 42.8 °F 48% 30.62 in 10.0 mi NNW 4.6 mph - N/A   Clear
1:16 PM 62.6 °F 42.8 °F 48% 30.61 in 10.0 mi Calm Calm - N/A Thunderstorm Thunderstorm
1:36 PM 62.6 °F 42.8 °F 48% 30.61 in 10.0 mi Calm Calm - N/A Thunderstorm Thunderstorm
1:56 PM 62.6 °F 46.4 °F 55% 30.61 in 10.0 mi Calm Calm - N/A Thunderstorm Mostly Cloudy
2:15 PM 62.6 °F 46.4 °F 55% 30.60 in 10.0 mi Calm Calm - N/A   Overcast
2:36 PM 62.6 °F 48.2 °F 59% 30.60 in 10.0 mi Calm Calm - N/A   Overcast
2:56 PM 60.8 °F 46.4 °F 59% 30.59 in 10.0 mi Calm Calm - N/A Thunderstorm Overcast
3:16 PM 60.8 °F 48.2 °F 63% 30.58 in 10.0 mi Calm Calm - N/A Rain Light Rain
3:36 PM 60.8 °F 46.4 °F 59% 30.57 in 10.0 mi Calm Calm - N/A Rain , Thunderstorm Light Thunderstorms and Rain
3:56 PM 62.6 °F 46.4 °F 55% 30.57 in 10.0 mi Calm Calm - N/A Rain , Thunderstorm Light Thunderstorms and Rain
4:16 PM 64.4 °F 44.6 °F 49% 30.56 in 10.0 mi WSW 4.6 mph - N/A   Mostly Cloudy
4:36 PM 64.4 °F 42.8 °F 45% 30.56 in 10.0 mi Calm Calm - N/A   Mostly Cloudy
4:56 PM 66.2 °F 42.8 °F 43% 30.56 in 10.0 mi Calm Calm - N/A   Scattered Clouds
5:16 PM 66.2 °F 39.2 °F 37% 30.56 in 10.0 mi NW 3.5 mph - N/A   Scattered Clouds
5:35 PM 68.0 °F 41.0 °F 37% 30.56 in 10.0 mi Calm Calm - N/A   Clear
5:56 PM 66.2 °F 41.0 °F 40% 30.56 in 10.0 mi Calm Calm - N/A   Scattered Clouds
6:36 PM 62.6 °F 42.8 °F 48% 30.56 in 10.0 mi NNE 3.5 mph - N/A Thunderstorm Overcast
6:56 PM 60.8 °F 44.6 °F 55% 30.55 in 10.0 mi NE 6.9 mph - N/A   Overcast
7:16 PM 59.0 °F 44.6 °F 59% 30.56 in 10.0 mi NE 3.5 mph - N/A   Overcast
7:36 PM 57.2 °F 46.4 °F 67% 30.57 in 10.0 mi NE 5.8 mph - N/A   Overcast
7:56 PM 57.2 °F 46.4 °F 67% 30.57 in 10.0 mi NE 5.8 mph - N/A   Overcast
8:16 PM 55.4 °F 46.4 °F 72% 30.57 in 10.0 mi ENE 4.6 mph - N/A Thunderstorm Thunderstorm
8:36 PM 55.4 °F 44.6 °F 67% 30.57 in 10.0 mi ENE 5.8 mph - N/A Thunderstorm Thunderstorm
8:56 PM 55.4 °F 44.6 °F 67% 30.58 in 10.0 mi NE 6.9 mph - N/A   Overcast
9:16 PM 53.6 °F 46.4 °F 77% 30.59 in 10.0 mi NE 6.9 mph - N/A   Overcast
9:36 PM 53.6 °F 46.4 °F 77% 30.60 in 10.0 mi NE 5.8 mph - N/A   Overcast
9:55 PM 53.6 °F 46.4 °F 77% 30.60 in 10.0 mi NE 4.6 mph - N/A   Overcast
10:15 PM 53.6 °F 46.4 °F 77% 30.61 in 10.0 mi ENE 4.6 mph - N/A   Overcast
10:36 PM 53.6 °F 46.4 °F 77% 30.61 in 10.0 mi East 3.5 mph - N/A   Overcast
10:56 PM 53.6 °F 46.4 °F 77% 30.61 in 10.0 mi Calm Calm - N/A   Overcast
11:16 PM 53.6 °F 46.4 °F 77% 30.60 in 10.0 mi Calm Calm - N/A   Overcast
11:36 PM 53.6 °F 46.4 °F 77% 30.59 in 10.0 mi ESE 3.5 mph - N/A   Overcast
11:56 PM 53.6 °F 44.6 °F 72% 30.59 in 10.0 mi ESE 3.5 mph - N/A   Overcast